Regional Weather Roundup
Issued by NWS

Home | Current Version | Previous Version | Graphics & Text | Print | Product List | Glossary On
Versions: 1 2 3 4 5 6 7 8 9 10 11 12 13 14 15 16 17 18 19 20 21 22 23 24 25 26 27
000
ASUS45 KBOI 180010
RWRID
WEATHER ROUNDUP FOR IDAHO
NATIONAL WEATHER SERVICE BOISE ID
600 PM MDT THU APR 17 2014

NOTE: "FAIR" INDICATES FEW OR NO CLOUDS BELOW 12000 FEET
WITH NO SIGNIFICANT WEATHER AND/OR OBSTRUCTIONS TO VISIBILITY

IDZ012-014-180100-
SOUTHWEST IDAHO


CITY           SKY/WX    TMP DP  RH WIND       PRES   REMARKS
BOISE          MOSUNNY   73  31  21 SE16G23   29.65F
CALDWELL       PTSUNNY   73  34  23 SE17      29.66F
MOUNTAIN HOME  PTSUNNY   74  30  20 E20       29.67F
$$

IDZ016-017-180100-
SOUTHCENTRAL IDAHO


CITY           SKY/WX    TMP DP  RH WIND       PRES   REMARKS
BURLEY         SUNNY     72  29  20 S13       29.77F
JEROME         SUNNY     72  32  23 N14       29.77F
TWIN FALLS     SUNNY     74  31  20 N15       29.76F
$$

IDZ019>023-180100-
SOUTHEAST IDAHO


CITY           SKY/WX    TMP DP  RH WIND       PRES   REMARKS
IDAHO FALLS    PTSUNNY   65  24  21 S20G26    29.87F
POCATELLO      MOSUNNY   67  24  19 S14G22    29.86F
REXBURG        PTSUNNY   63  22  20 SW14G26   29.87F
$$

IDZ006-010-011-018-031-032-180100-
CENTRAL IDAHO MOUNTAINS


CITY           SKY/WX    TMP DP  RH WIND       PRES   REMARKS
MCCALL         CLOUDY    57  31  37 S10       29.74F
HAILEY         MOSUNNY   61  28  29 SE9       29.87F
STANLEY          N/A     50  26  39 S7        29.87F
SALMON         CLOUDY    63  30  29 N9        29.70F
CHALLIS        MOSUNNY   65  25  22 SW10G21   29.77F
$$

IDZ002-004-006-007-026-180100-
NORTHERN IDAHO


CITY           SKY/WX    TMP DP  RH WIND       PRES   REMARKS
LEWISTON       LGT RAIN  53  46  77 CALM      29.79F
LOWELL           N/A     57  47  69 CALM      29.74R
COEUR D`ALENE  CLOUDY    48  45  87 SE3       29.78F
MULLAN PASS    SNOW      34  34 100 VRB5      29.77F VSB<1/4 WCI  30
$$



USA.gov is the U.S. government's official web portal to all federal, state and local government web resources and services.